| time (UTC) | temp F | wind direction | speed MPH | gust MPH | rain 1hr in | rain 24hr in | rain mn in | humidity % | barometer mb |
| 20260905211903 | 70 | 29 | 2.0 | 5.0 | 0.00 | 0.01 | 0.00 | 59 | 1015.8 |
| 20260905210903 | 69 | 223 | 0.0 | 3.0 | 0.00 | 0.01 | 0.00 | 58 | 1015.8 |
| 20260905205903 | 70 | 321 | 3.0 | 7.0 | 0.00 | 0.01 | 0.00 | 59 | 1016.0 |
| 20260905205404 | 70 | 22 | 5.0 | 7.0 | 0.00 | 0.01 | 0.00 | 56 | 1015.9 |
| 20260905204903 | 71 | 59 | 2.0 | 3.0 | 0.00 | 0.01 | 0.00 | 57 | 1016.0 |
| 20260905204403 | 70 | 1 | 0.0 | 9.0 | 0.00 | 0.01 | 0.00 | 56 | 1016.0 |
| 20260905203903 | 71 | 202 | 0.0 | 9.0 | 0.00 | 0.01 | 0.00 | 56 | 1015.9 |
| 20260905203404 | 72 | 187 | 3.0 | 9.0 | 0.00 | 0.01 | 0.00 | 55 | 1016.0 |
| 20260905202904 | 72 | 164 | 3.0 | 6.0 | 0.00 | 0.01 | 0.00 | 55 | 1016.0 |
| 20260905202404 | 71 | 229 | 2.0 | 7.0 | 0.00 | 0.01 | 0.00 | 55 | 1016.0 |
| 20260905201903 | 71 | 252 | 2.0 | 9.0 | 0.00 | 0.01 | 0.00 | 60 | 1015.9 |
| 20260905201404 | 71 | 22 | 5.0 | 9.0 | 0.00 | 0.01 | 0.00 | 58 | 1016.0 |
| 20260905200403 | 70 | 214 | 2.0 | 7.0 | 0.00 | 0.01 | 0.00 | 61 | 1016.0 |
| 20260905195903 | 70 | 277 | 3.0 | 7.0 | 0.00 | 0.01 | 0.00 | 60 | 1016.0 |
| 20260905195403 | 70 | 108 | 2.0 | 5.0 | 0.00 | 0.01 | 0.00 | 59 | 1016.1 |
| 20260905194904 | 70 | 259 | 1.0 | 5.0 | 0.00 | 0.01 | 0.00 | 60 | 1016.2 |
| 20260905194403 | 70 | 332 | 1.0 | 5.0 | 0.00 | 0.01 | 0.00 | 61 | 1016.3 |
| 20260905193904 | 70 | 276 | 1.0 | 6.0 | 0.00 | 0.01 | 0.00 | 63 | 1016.3 |
| 20260905193403 | 69 | 313 | 2.0 | 6.0 | 0.00 | 0.01 | 0.00 | 63 | 1016.3 |
| 20260905192404 | 69 | 301 | 1.0 | 6.0 | 0.00 | 0.01 | 0.00 | 62 | 1016.5 |
| 20260905191904 | 69 | 274 | 1.0 | 6.0 | 0.00 | 0.01 | 0.00 | 63 | 1016.5 |
| 20260905191403 | 68 | 27 | 0.0 | 6.0 | 0.00 | 0.01 | 0.00 | 65 | 1016.6 |
| 20260905190903 | 68 | 61 | 2.0 | 6.0 | 0.00 | 0.01 | 0.00 | 63 | 1016.6 |
| 20260905190404 | 68 | 334 | 1.0 | 5.0 | 0.00 | 0.01 | 0.00 | 64 | 1016.7 |
| 20260905185903 | 68 | 301 | 1.0 | 3.0 | 0.00 | 0.01 | 0.00 | 65 | 1016.7 |
| 20260905185404 | 68 | 76 | 0.0 | 3.0 | 0.00 | 0.01 | 0.00 | 65 | 1016.8 |
| 20260905184903 | 68 | 279 | 1.0 | 3.0 | 0.00 | 0.01 | 0.00 | 66 | 1016.8 |
| 20260905184404 | 67 | 357 | 1.0 | 5.0 | 0.00 | 0.01 | 0.00 | 69 | 1016.9 |
| 20260905183904 | 67 | 57 | 0.0 | 5.0 | 0.00 | 0.01 | 0.00 | 66 | 1016.9 |
| 20260905183403 | 67 | 24 | 2.0 | 5.0 | 0.00 | 0.01 | 0.00 | 68 | 1017.0 |
| 20260905182903 | 66 | 26 | 1.0 | 5.0 | 0.00 | 0.01 | 0.00 | 70 | 1017.1 |
| 20260905182404 | 66 | 236 | 0.0 | 5.0 | 0.00 | 0.01 | 0.00 | 69 | 1017.1 |
| 20260905181903 | 65 | 28 | 1.0 | 5.0 | 0.00 | 0.01 | 0.00 | 72 | 1017.1 |
| 20260905181403 | 65 | 115 | 0.0 | 3.0 | 0.00 | 0.01 | 0.00 | 73 | 1017.1 |
| 20260905180404 | 64 | 276 | 1.0 | 3.0 | 0.00 | 0.01 | 0.00 | 74 | 1017.2 |
| 20260905175404 | 64 | 146 | 0.0 | 2.0 | 0.00 | 0.01 | 0.00 | 75 | 1017.2 |
| 20260905174903 | 64 | 196 | 0.0 | 2.0 | 0.00 | 0.01 | 0.00 | 73 | 1017.2 |
| 20260905174404 | 64 | 244 | 0.0 | 3.0 | 0.00 | 0.01 | 0.00 | 72 | 1017.2 |
| 20260905173404 | 64 | 286 | 2.0 | 6.0 | 0.00 | 0.01 | 0.00 | 77 | 1017.2 |
| 20260905172903 | 63 | 126 | 0.0 | 3.0 | 0.00 | 0.01 | 0.00 | 78 | 1017.3 |
| 20260905172404 | 62 | 294 | 1.0 | 3.0 | 0.00 | 0.01 | 0.00 | 80 | 1017.3 |
| 20260905171904 | 62 | 274 | 1.0 | 3.0 | 0.00 | 0.01 | 0.00 | 82 | 1017.3 |
| 20260905171404 | 61 | 158 | 1.0 | 3.0 | 0.00 | 0.01 | 0.00 | 80 | 1017.3 |
| 20260905170904 | 60 | 202 | 1.0 | 3.0 | 0.00 | 0.01 | 0.00 | 85 | 1017.3 |
| 20260905170403 | 59 | 102 | 1.0 | 5.0 | 0.00 | 0.01 | 0.00 | 84 | 1017.3 |
| 20260905165904 | 59 | 294 | 1.0 | 5.0 | 0.00 | 0.01 | 0.00 | 86 | 1017.4 |
| 20260905165403 | 59 | 24 | 2.0 | 5.0 | 0.00 | 0.01 | 0.00 | 86 | 1017.3 |
| 20260905164904 | 58 | 140 | 0.0 | 0.0 | 0.00 | 0.01 | 0.00 | 86 | 1017.4 |
| 20260905164403 | 58 | 74 | 0.0 | 0.0 | 0.00 | 0.01 | 0.00 | 88 | 1017.4 |
| 20260905163905 | 57 | 62 | 0.0 | 0.0 | 0.00 | 0.01 | 0.00 | 89 | 1017.4 |
| 20260905163404 | 57 | 71 | 0.0 | 0.0 | 0.00 | 0.01 | 0.00 | 89 | 1017.5 |
| 20260905162904 | 57 | 267 | 0.0 | 0.0 | 0.00 | 0.01 | 0.00 | 89 | 1017.5 |
| 20260905162403 | 57 | 257 | 0.0 | 0.0 | 0.00 | 0.01 | 0.00 | 89 | 1017.4 |
| 20260905161903 | 56 | 257 | 0.0 | 0.0 | 0.00 | 0.01 | 0.00 | 90 | 1017.4 |
| 20260905161404 | 56 | 257 | 0.0 | 0.0 | 0.00 | 0.01 | 0.00 | 89 | 1017.5 |
| 20260905160904 | 56 | 253 | 0.0 | 0.0 | 0.00 | 0.01 | 0.00 | 90 | 1017.5 |
| 20260905160404 | 56 | 247 | 0.0 | 0.0 | 0.00 | 0.01 | 0.00 | 90 | 1017.5 |
| 20260905155904 | 56 | 307 | 0.0 | 0.0 | 0.00 | 0.01 | 0.00 | 91 | 1017.6 |
| 20260905155404 | 56 | 307 | 0.0 | 0.0 | 0.00 | 0.01 | 0.00 | 92 | 1017.6 |
| 20260905154903 | 55 | 311 | 0.0 | 0.0 | 0.00 | 0.01 | 0.00 | 93 | 1017.6 |
| 20260905154403 | 55 | 313 | 0.0 | 0.0 | 0.00 | 0.01 | 0.00 | 94 | 1017.5 |
| 20260905153904 | 55 | 313 | 0.0 | 0.0 | 0.00 | 0.01 | 0.00 | 95 | 1017.6 |
| 20260905153405 | 54 | 313 | 0.0 | 0.0 | 0.00 | 0.01 | 0.00 | 95 | 1017.6 |
| 20260905152903 | 54 | 21 | 0.0 | 0.0 | 0.00 | 0.01 | 0.00 | 96 | 1017.6 |
| 20260905152403 | 54 | 47 | 0.0 | 0.0 | 0.00 | 0.01 | 0.00 | 96 | 1017.7 |
| 20260905151903 | 53 | 47 | 0.0 | 0.0 | 0.00 | 0.01 | 0.00 | 96 | 1017.6 |
| 20260905150904 | 53 | 44 | 0.0 | 0.0 | 0.00 | 0.01 | 0.00 | 96 | 1017.5 |
| 20260905150403 | 53 | 44 | 0.0 | 0.0 | 0.00 | 0.01 | 0.00 | 95 | 1017.4 |
| 20260905145904 | 52 | 44 | 0.0 | 0.0 | 0.00 | 0.01 | 0.00 | 95 | 1017.5 |
| 20260905145404 | 52 | 44 | 0.0 | 0.0 | 0.00 | 0.01 | 0.00 | 95 | 1017.4 |
| 20260905144903 | 52 | 37 | 0.0 | 0.0 | 0.00 | 0.01 | 0.00 | 95 | 1017.4 |
| 20260905144404 | 52 | 36 | 0.0 | 0.0 | 0.00 | 0.01 | 0.00 | 96 | 1017.5 |
| 20260905143904 | 52 | 156 | 0.0 | 0.0 | 0.00 | 0.01 | 0.00 | 95 | 1017.5 |
| 20260905143403 | 51 | 161 | 0.0 | 0.0 | 0.00 | 0.01 | 0.00 | 95 | 1017.5 |
| 20260905142904 | 51 | 161 | 0.0 | 0.0 | 0.00 | 0.01 | 0.00 | 95 | 1017.5 |
| 20260905142404 | 51 | 161 | 0.0 | 0.0 | 0.00 | 0.01 | 0.00 | 95 | 1017.5 |
| 20260905141904 | 51 | 161 | 0.0 | 0.0 | 0.00 | 0.01 | 0.00 | 95 | 1017.4 |
| 20260905141403 | 51 | 161 | 0.0 | 0.0 | 0.00 | 0.01 | 0.00 | 95 | 1017.4 |
| 20260905140904 | 51 | 161 | 0.0 | 0.0 | 0.00 | 0.01 | 0.00 | 95 | 1017.4 |
| 20260905140404 | 51 | 161 | 0.0 | 0.0 | 0.00 | 0.01 | 0.00 | 95 | 1017.4 |
| 20260905135903 | 50 | 161 | 0.0 | 0.0 | 0.00 | 0.01 | 0.00 | 95 | 1017.3 |
| 20260905134904 | 50 | 161 | 0.0 | 0.0 | 0.00 | 0.02 | 0.00 | 94 | 1017.2 |
| 20260905134404 | 50 | 161 | 0.0 | 0.0 | 0.00 | 0.02 | 0.00 | 94 | 1017.3 |
| 20260905133904 | 50 | 161 | 0.0 | 0.0 | 0.00 | 0.02 | 0.00 | 94 | 1017.3 |
| 20260905133404 | 51 | 161 | 0.0 | 0.0 | 0.00 | 0.02 | 0.00 | 94 | 1017.2 |
| 20260905132403 | 51 | 162 | 0.0 | 0.0 | 0.00 | 0.02 | 0.00 | 94 | 1017.1 |
| 20260905131903 | 51 | 162 | 0.0 | 0.0 | 0.00 | 0.02 | 0.00 | 94 | 1017.2 |
| 20260905130403 | 51 | 162 | 0.0 | 0.0 | 0.00 | 0.02 | 0.00 | 94 | 1017.1 |
| 20260905125903 | 51 | 162 | 0.0 | 0.0 | 0.00 | 0.02 | 0.00 | 94 | 1017.0 |
| 20260905123904 | 52 | 162 | 0.0 | 0.0 | 0.00 | 0.04 | 0.00 | 94 | 1016.9 |
| 20260905122904 | 52 | 162 | 0.0 | 0.0 | 0.00 | 0.04 | 0.00 | 94 | 1016.9 |
| 20260905122403 | 52 | 162 | 0.0 | 0.0 | 0.00 | 0.05 | 0.00 | 95 | 1017.0 |
| 20260905121404 | 52 | 162 | 0.0 | 0.0 | 0.00 | 0.05 | 0.00 | 95 | 1016.9 |
| 20260905120904 | 52 | 162 | 0.0 | 0.0 | 0.00 | 0.05 | 0.00 | 95 | 1016.9 |
| 20260905115903 | 52 | 162 | 0.0 | 0.0 | 0.00 | 0.05 | 0.00 | 95 | 1016.9 |
| 20260905114904 | 52 | 78 | 0.0 | 0.0 | 0.00 | 0.05 | 0.00 | 95 | 1016.8 |
| 20260905114403 | 52 | 39 | 0.0 | 0.0 | 0.00 | 0.05 | 0.00 | 95 | 1016.8 |
| 20260905113904 | 52 | 39 | 0.0 | 0.0 | 0.00 | 0.05 | 0.00 | 95 | 1016.7 |
| 20260905113404 | 52 | 59 | 0.0 | 0.0 | 0.00 | 0.05 | 0.00 | 95 | 1016.7 |
| 20260905112904 | 52 | 75 | 0.0 | 0.0 | 0.00 | 0.05 | 0.00 | 95 | 1016.7 |
| 20260905112403 | 52 | 75 | 0.0 | 0.0 | 0.00 | 0.05 | 0.00 | 95 | 1016.8 |
| 20260905111904 | 52 | 75 | 0.0 | 0.0 | 0.00 | 0.05 | 0.00 | 95 | 1016.8 |
| 20260905111404 | 51 | 75 | 0.0 | 0.0 | 0.00 | 0.05 | 0.00 | 95 | 1016.8 |
| 20260905110903 | 51 | 75 | 0.0 | 0.0 | 0.00 | 0.05 | 0.00 | 95 | 1016.8 |
| 20260905110404 | 51 | 75 | 0.0 | 0.0 | 0.00 | 0.05 | 0.00 | 95 | 1016.8 |
| 20260905105903 | 51 | 75 | 0.0 | 0.0 | 0.00 | 0.05 | 0.00 | 95 | 1016.9 |
| 20260905105404 | 51 | 76 | 0.0 | 0.0 | 0.00 | 0.05 | 0.00 | 95 | 1016.9 |
| 20260905104903 | 51 | 82 | 0.0 | 0.0 | 0.00 | 0.05 | 0.00 | 95 | 1016.9 |
| 20260905104403 | 51 | 134 | 0.0 | 0.0 | 0.00 | 0.05 | 0.00 | 95 | 1016.9 |
| 20260905103903 | 51 | 165 | 0.0 | 0.0 | 0.00 | 0.05 | 0.00 | 95 | 1016.9 |
| 20260905103404 | 51 | 165 | 0.0 | 0.0 | 0.00 | 0.05 | 0.00 | 95 | 1016.8 |
| 20260905102404 | 51 | 165 | 0.0 | 0.0 | 0.00 | 0.05 | 0.00 | 95 | 1016.7 |
| 20260905101404 | 51 | 83 | 0.0 | 0.0 | 0.00 | 0.05 | 0.00 | 94 | 1016.7 |
| 20260905100904 | 51 | 83 | 0.0 | 0.0 | 0.00 | 0.05 | 0.00 | 95 | 1016.7 |
| 20260905100404 | 51 | 83 | 0.0 | 0.0 | 0.00 | 0.05 | 0.00 | 95 | 1016.7 |
| 20260905095905 | 51 | 83 | 0.0 | 0.0 | 0.00 | 0.05 | 0.00 | 95 | 1016.8 |
| 20260905095403 | 51 | 83 | 0.0 | 0.0 | 0.00 | 0.05 | 0.00 | 95 | 1016.8 |
| 20260905094904 | 51 | 80 | 0.0 | 0.0 | 0.00 | 0.05 | 0.00 | 94 | 1016.7 |
| 20260905093403 | 51 | 80 | 0.0 | 0.0 | 0.00 | 0.05 | 0.00 | 94 | 1016.8 |
| 20260905092903 | 51 | 80 | 0.0 | 0.0 | 0.00 | 0.05 | 0.00 | 94 | 1016.8 |
| 20260905092404 | 51 | 80 | 0.0 | 0.0 | 0.00 | 0.05 | 0.00 | 94 | 1016.7 |
| 20260905091904 | 51 | 80 | 0.0 | 0.0 | 0.00 | 0.05 | 0.00 | 93 | 1016.7 |
| 20260905091404 | 51 | 80 | 0.0 | 0.0 | 0.00 | 0.05 | 0.00 | 93 | 1016.7 |
| 20260905090904 | 51 | 80 | 0.0 | 0.0 | 0.00 | 0.05 | 0.00 | 93 | 1016.5 |
| 20260905085904 | 52 | 80 | 0.0 | 0.0 | 0.00 | 0.05 | 0.00 | 93 | 1016.4 |
| 20260905085404 | 52 | 80 | 0.0 | 0.0 | 0.00 | 0.05 | 0.00 | 93 | 1016.5 |
| 20260905084403 | 52 | 80 | 0.0 | 0.0 | 0.00 | 0.05 | 0.00 | 93 | 1016.5 |
| 20260905083904 | 52 | 80 | 0.0 | 0.0 | 0.00 | 0.05 | 0.00 | 93 | 1016.4 |
| 20260905083403 | 52 | 80 | 0.0 | 0.0 | 0.00 | 0.05 | 0.00 | 93 | 1016.4 |
| 20260905082904 | 52 | 80 | 0.0 | 0.0 | 0.00 | 0.05 | 0.00 | 93 | 1016.3 |
| 20260905082404 | 52 | 80 | 0.0 | 0.0 | 0.00 | 0.05 | 0.00 | 93 | 1016.4 |
| 20260905081403 | 53 | 80 | 0.0 | 0.0 | 0.00 | 0.05 | 0.00 | 92 | 1016.4 |
| 20260905080904 | 53 | 80 | 0.0 | 0.0 | 0.00 | 0.05 | 0.00 | 93 | 1016.4 |
| 20260905080403 | 53 | 80 | 0.0 | 0.0 | 0.00 | 0.05 | 0.00 | 93 | 1016.3 |
| 20260905075903 | 53 | 80 | 0.0 | 0.0 | 0.00 | 0.05 | 0.00 | 93 | 1016.3 |
| 20260905075404 | 53 | 80 | 0.0 | 0.0 | 0.00 | 0.05 | 0.00 | 93 | 1016.3 |
| 20260905074903 | 53 | 80 | 0.0 | 0.0 | 0.00 | 0.05 | 0.00 | 93 | 1016.2 |
| 20260905073904 | 53 | 80 | 0.0 | 0.0 | 0.00 | 0.05 | 0.00 | 93 | 1016.2 |
| 20260905073402 | 53 | 80 | 0.0 | 0.0 | 0.00 | 0.05 | 0.00 | 93 | 1016.2 |
| 20260905072902 | 53 | 80 | 0.0 | 0.0 | 0.00 | 0.05 | 0.00 | 93 | 1016.2 |
| 20260905072403 | 53 | 80 | 0.0 | 0.0 | 0.00 | 0.05 | 0.00 | 93 | 1016.1 |
| 20260905071402 | 53 | 80 | 0.0 | 0.0 | 0.00 | 0.05 | 0.00 | 93 | 1016.2 |
| 20260905070902 | 53 | 80 | 0.0 | 0.0 | 0.00 | 0.05 | 0.00 | 93 | 1016.2 |
| 20260905070402 | 53 | 78 | 0.0 | 0.0 | 0.00 | 0.05 | 0.00 | 93 | 1016.1 |
| 20260905064902 | 53 | 78 | 0.0 | 0.0 | 0.00 | 0.05 | 0.05 | 93 | 1015.9 |
| 20260905064403 | 53 | 117 | 0.0 | 0.0 | 0.00 | 0.05 | 0.05 | 93 | 1015.8 |
| 20260905063903 | 53 | 117 | 0.0 | 0.0 | 0.00 | 0.05 | 0.05 | 93 | 1015.9 |
| 20260905063403 | 53 | 117 | 0.0 | 0.0 | 0.00 | 0.05 | 0.05 | 93 | 1015.9 |
| 20260905062902 | 53 | 117 | 0.0 | 0.0 | 0.00 | 0.05 | 0.05 | 93 | 1015.8 |
| 20260905062403 | 53 | 117 | 0.0 | 0.0 | 0.00 | 0.05 | 0.05 | 94 | 1015.8 |
| 20260905061902 | 53 | 117 | 0.0 | 0.0 | 0.00 | 0.05 | 0.05 | 94 | 1015.7 |
| 20260905061402 | 52 | 117 | 0.0 | 0.0 | 0.00 | 0.05 | 0.05 | 93 | 1015.7 |
| 20260905060902 | 52 | 117 | 0.0 | 0.0 | 0.00 | 0.05 | 0.05 | 93 | 1015.6 |
| 20260905060402 | 52 | 117 | 0.0 | 0.0 | 0.00 | 0.05 | 0.05 | 93 | 1015.7 |
| 20260905055903 | 52 | 117 | 0.0 | 0.0 | 0.00 | 0.05 | 0.05 | 93 | 1015.6 |
| 20260905054402 | 52 | 117 | 0.0 | 0.0 | 0.00 | 0.05 | 0.05 | 92 | 1015.7 |
| 20260905053903 | 53 | 117 | 0.0 | 0.0 | 0.00 | 0.05 | 0.05 | 92 | 1015.6 |
| 20260905053402 | 53 | 117 | 0.0 | 0.0 | 0.00 | 0.05 | 0.05 | 92 | 1015.6 |
| 20260905052903 | 53 | 117 | 0.0 | 0.0 | 0.00 | 0.05 | 0.05 | 92 | 1015.6 |
| 20260905052402 | 53 | 117 | 0.0 | 0.0 | 0.00 | 0.05 | 0.05 | 92 | 1015.5 |
| 20260905051903 | 53 | 117 | 0.0 | 0.0 | 0.00 | 0.05 | 0.05 | 92 | 1015.6 |
| 20260905051403 | 53 | 117 | 0.0 | 0.0 | 0.00 | 0.05 | 0.05 | 92 | 1015.6 |
| 20260905050903 | 53 | 117 | 0.0 | 0.0 | 0.00 | 0.05 | 0.05 | 92 | 1015.6 |
| 20260905045903 | 53 | 117 | 0.0 | 0.0 | 0.00 | 0.05 | 0.05 | 93 | 1015.5 |
| 20260905045403 | 53 | 117 | 0.0 | 0.0 | 0.00 | 0.05 | 0.05 | 93 | 1015.5 |
| 20260905044902 | 53 | 117 | 0.0 | 0.0 | 0.00 | 0.05 | 0.05 | 93 | 1015.4 |
| 20260905044402 | 53 | 117 | 0.0 | 0.0 | 0.00 | 0.05 | 0.05 | 93 | 1015.5 |
| 20260905043903 | 53 | 117 | 0.0 | 0.0 | 0.00 | 0.05 | 0.05 | 93 | 1015.5 |
| 20260905043403 | 53 | 117 | 0.0 | 0.0 | 0.00 | 0.05 | 0.05 | 93 | 1015.4 |
| 20260905042903 | 53 | 117 | 0.0 | 0.0 | 0.00 | 0.05 | 0.05 | 93 | 1015.4 |
| 20260905042403 | 53 | 117 | 0.0 | 0.0 | 0.00 | 0.05 | 0.05 | 93 | 1015.4 |
| 20260905041902 | 53 | 117 | 0.0 | 0.0 | 0.00 | 0.05 | 0.05 | 93 | 1015.4 |
| 20260905041402 | 53 | 117 | 0.0 | 0.0 | 0.00 | 0.05 | 0.05 | 92 | 1015.3 |
| 20260905040403 | 53 | 117 | 0.0 | 0.0 | 0.00 | 0.05 | 0.05 | 92 | 1015.3 |
| 20260905035903 | 53 | 117 | 0.0 | 0.0 | 0.00 | 0.05 | 0.05 | 91 | 1015.3 |
| 20260905035403 | 53 | 117 | 0.0 | 0.0 | 0.00 | 0.05 | 0.05 | 90 | 1015.2 |
| 20260905034902 | 53 | 117 | 0.0 | 0.0 | 0.00 | 0.05 | 0.05 | 91 | 1015.1 |
| 20260905034402 | 53 | 141 | 0.0 | 0.0 | 0.00 | 0.05 | 0.05 | 90 | 1015.0 |
| 20260905033903 | 53 | 69 | 0.0 | 0.0 | 0.00 | 0.05 | 0.05 | 89 | 1015.0 |
| 20260905033402 | 53 | 69 | 0.0 | 0.0 | 0.00 | 0.05 | 0.05 | 89 | 1015.0 |
| 20260905032903 | 54 | 69 | 0.0 | 0.0 | 0.00 | 0.05 | 0.05 | 89 | 1015.0 |
| 20260905032403 | 54 | 69 | 0.0 | 0.0 | 0.00 | 0.05 | 0.05 | 89 | 1014.9 |
| 20260905031902 | 54 | 69 | 0.0 | 0.0 | 0.00 | 0.05 | 0.05 | 88 | 1014.9 |
| 20260905031403 | 55 | 69 | 0.0 | 0.0 | 0.00 | 0.05 | 0.05 | 87 | 1014.8 |
| 20260905030903 | 55 | 69 | 0.0 | 0.0 | 0.00 | 0.05 | 0.05 | 87 | 1014.7 |
| 20260905030402 | 55 | 69 | 0.0 | 0.0 | 0.00 | 0.05 | 0.05 | 87 | 1014.8 |
| 20260905025903 | 56 | 69 | 0.0 | 0.0 | 0.00 | 0.05 | 0.05 | 86 | 1014.8 |
| 20260905025403 | 56 | 69 | 0.0 | 0.0 | 0.00 | 0.05 | 0.05 | 86 | 1014.8 |
| 20260905024902 | 56 | 69 | 0.0 | 0.0 | 0.00 | 0.05 | 0.05 | 86 | 1014.8 |
| 20260905024402 | 57 | 69 | 0.0 | 0.0 | 0.00 | 0.05 | 0.05 | 85 | 1014.8 |
| 20260905023403 | 57 | 69 | 0.0 | 0.0 | 0.00 | 0.05 | 0.05 | 85 | 1014.9 |
| 20260905022902 | 58 | 69 | 0.0 | 0.0 | 0.00 | 0.05 | 0.05 | 84 | 1014.9 |
| 20260905022403 | 58 | 84 | 0.0 | 0.0 | 0.00 | 0.05 | 0.05 | 83 | 1014.8 |
| 20260905021902 | 58 | 95 | 0.0 | 0.0 | 0.00 | 0.05 | 0.05 | 82 | 1014.8 |
| 20260905020902 | 59 | 82 | 0.0 | 0.0 | 0.00 | 0.05 | 0.05 | 81 | 1014.8 |
| 20260905015903 | 60 | 35 | 0.0 | 0.0 | 0.00 | 0.05 | 0.05 | 80 | 1014.7 |
| 20260905015403 | 60 | 73 | 0.0 | 0.0 | 0.00 | 0.05 | 0.05 | 78 | 1014.5 |
| 20260905014902 | 61 | 63 | 0.0 | 0.0 | 0.00 | 0.05 | 0.05 | 76 | 1014.5 |
| 20260905014403 | 61 | 50 | 0.0 | 0.0 | 0.00 | 0.05 | 0.05 | 72 | 1014.3 |
| 20260905013902 | 61 | 49 | 0.0 | 0.0 | 0.00 | 0.05 | 0.05 | 71 | 1014.3 |
| 20260905012903 | 61 | 89 | 0.0 | 0.0 | 0.00 | 0.05 | 0.05 | 72 | 1014.3 |
| 20260905012402 | 61 | 208 | 0.0 | 2.0 | 0.00 | 0.05 | 0.05 | 72 | 1014.3 |
| 20260905011903 | 61 | 167 | 0.0 | 3.0 | 0.00 | 0.05 | 0.05 | 73 | 1014.2 |
| 20260905011403 | 61 | 102 | 0.0 | 3.0 | 0.00 | 0.05 | 0.05 | 72 | 1014.2 |
| 20260905010902 | 62 | 122 | 1.0 | 3.0 | 0.00 | 0.05 | 0.05 | 73 | 1014.2 |
| 20260905010402 | 62 | 144 | 0.0 | 2.0 | 0.00 | 0.05 | 0.05 | 73 | 1014.1 |
| 20260905005403 | 62 | 81 | 1.0 | 2.0 | 0.00 | 0.05 | 0.05 | 75 | 1014.1 |
| 20260905004402 | 62 | 192 | 0.0 | 3.0 | 0.00 | 0.05 | 0.05 | 76 | 1014.0 |
| 20260905003902 | 62 | 25 | 0.0 | 3.0 | 0.00 | 0.05 | 0.05 | 78 | 1014.1 |
| 20260905002402 | 61 | 40 | 1.0 | 3.0 | 0.00 | 0.05 | 0.05 | 79 | 1014.1 |
| 20260905001902 | 60 | 24 | 1.0 | 3.0 | 0.00 | 0.05 | 0.05 | 81 | 1014.1 |
| 20260905000903 | 60 | 257 | 0.0 | 1.0 | 0.00 | 0.05 | 0.05 | 81 | 1014.1 |
| 20260905000403 | 60 | 0 | 0.0 | 0.0 | 0.00 | 0.05 | 0.05 | 81 | 1014.0 |
| 20260904235402 | 59 | 351 | 0.0 | 0.0 | 0.00 | 0.05 | 0.05 | 81 | 1014.0 |
| 20260904234403 | 59 | 352 | 0.0 | 0.0 | 0.00 | 0.05 | 0.05 | 80 | 1014.0 |
| 20260904233402 | 59 | 357 | 0.0 | 0.0 | 0.01 | 0.05 | 0.05 | 81 | 1014.0 |
| 20260904232902 | 59 | 349 | 0.0 | 0.0 | 0.01 | 0.05 | 0.05 | 80 | 1013.9 |
| 20260904232403 | 59 | 345 | 0.0 | 0.0 | 0.01 | 0.05 | 0.05 | 81 | 1013.9 |
| 20260904231903 | 59 | 314 | 0.0 | 0.0 | 0.01 | 0.05 | 0.05 | 81 | 1014.0 |
| 20260904231402 | 59 | 358 | 0.0 | 0.0 | 0.01 | 0.05 | 0.05 | 83 | 1014.1 |
| 20260904230903 | 59 | 0 | 0.0 | 0.0 | 0.01 | 0.05 | 0.05 | 81 | 1014.1 |
| 20260904225402 | 60 | 0 | 0.0 | 0.0 | 0.01 | 0.05 | 0.05 | 76 | 1014.1 |
| 20260904224903 | 60 | 357 | 0.0 | 2.0 | 0.01 | 0.05 | 0.05 | 75 | 1014.2 |
| 20260904224403 | 60 | 352 | 0.0 | 5.0 | 0.01 | 0.05 | 0.05 | 75 | 1014.2 |
| 20260904223902 | 59 | 342 | 0.0 | 5.0 | 0.00 | 0.04 | 0.04 | 76 | 1014.2 |
| 20260904222903 | 60 | 153 | 1.0 | 7.0 | 0.00 | 0.04 | 0.04 | 78 | 1013.9 |
| 20260904222402 | 60 | 345 | 1.0 | 7.0 | 0.00 | 0.04 | 0.04 | 76 | 1013.8 |
| 20260904221903 | 61 | 249 | 3.0 | 8.0 | 0.00 | 0.04 | 0.04 | 75 | 1013.7 |
| 20260904221403 | 63 | 212 | 2.0 | 16.0 | 0.00 | 0.04 | 0.04 | 73 | 1013.7 |
| 20260904220903 | 65 | 282 | 5.0 | 16.0 | 0.00 | 0.04 | 0.04 | 67 | 1013.5 |
| 20260904220402 | 67 | 228 | 1.0 | 7.0 | 0.00 | 0.04 | 0.04 | 62 | 1013.1 |
| 20260904215903 | 68 | 250 | 0.0 | 2.0 | 0.00 | 0.04 | 0.04 | 59 | 1013.1 |
| 20260904215403 | 67 | 202 | 0.0 | 2.0 | 0.00 | 0.04 | 0.04 | 61 | 1013.0 |
| 20260904214902 | 67 | 302 | 0.0 | 2.0 | 0.00 | 0.04 | 0.04 | 61 | 1013.0 |
| 20260904214402 | 67 | 293 | 0.0 | 2.0 | 0.00 | 0.04 | 0.04 | 61 | 1012.9 |
| 20260904213402 | 67 | 202 | 1.0 | 5.0 | 0.00 | 0.04 | 0.04 | 59 | 1012.6 |
| 20260904212903 | 67 | 150 | 2.0 | 6.0 | 0.00 | 0.04 | 0.04 | 56 | 1012.7 |
| 20260904212404 | 68 | 35 | 2.0 | 6.0 | 0.00 | 0.04 | 0.04 | 58 | 1012.6 |